STARLINK-37964

Last updated on Sun Aug 09 2026 00:02:04 GMT+0000 (Coordinated Universal Time)

1 69958U 26157R 26220.17518114 .00024081 00000+0 43938-3 0 9992 2 69958 53.1590 177.5343 0001171 96.7825 263.3318 15.49329445 4702
UTC large
Height (km)
Speed (km/s)
/
Latitude / Longitude
Inclination (degrees)
Orbital Period (minutes)
Azimuth
Elevation
Range (km)
Doppler Factor

Next 0 passes for location: London (51.5072 / 0.1276)

No passes found over London.
STARLINK-37964